IU2QRC-3 Weather Reports


time (UTC)temp
C
wind
direction
speed
KPH
gust
KPH
rain 1hr
cm
rain 24hr
cm
rain mn
cm
humidity
%
barometer
mb
20260506115722 16 0.0 0.0 0.00 0.00 0.00 48 1006.7
20260506113721 21 0.0 0.0 0.00 0.00 0.00 44 1006.0
20260506111721 19 0.0 0.0 0.00 0.00 0.00 51 1006.1
20260506110111 15 0.0 0.0 0.00 0.00 0.00 51 1007.0
20260506104110 14 0.0 0.0 0.00 0.00 0.00 54 1007.2
20260506102109 12 0.0 0.0 0.00 0.00 0.00 59 1007.5
20260506100109 13 0.0 0.0 0.00 0.00 0.00 59 1007.6
20260506094108 19 0.0 0.0 0.00 0.00 0.00 43 1006.5
20260506093212 18 0.0 0.0 0.00 0.00 0.00 43 1006.7
20260506082724 13 0.0 0.0 0.00 0.00 0.00 54 1007.0
20260506080724 15 0.0 0.0 0.00 0.00 0.00 52 1007.0
20260506072723 20 0.0 0.0 0.00 0.00 0.00 40 1006.6
20260506070723 18 0.0 0.0 0.00 0.00 0.00 43 1006.8
20260506060722 13 0.0 0.0 0.00 0.00 0.00 59 1007.6
20260506050721 12 0.0 0.0 0.00 0.00 0.00 62 1008.1
20260506044720 13 0.0 0.0 0.00 0.00 0.00 60 1007.7
20260506042720 13 0.0 0.0 0.00 0.00 0.00 60 1008.2
20260506040720 13 0.0 0.0 0.00 0.00 0.00 58 1007.9
20260506034720 13 0.0 0.0 0.00 0.00 0.00 61 1008.0
20260506032719 13 0.0 0.0 0.00 0.00 0.00 59 1007.8
20260506030719 13 0.0 0.0 0.00 0.00 0.00 59 1008.1
20260506024719 12 0.0 0.0 0.00 0.00 0.00 64 1008.8
20260506022718 13 0.0 0.0 0.00 0.00 0.00 59 1008.7
20260506020718 13 0.0 0.0 0.00 0.00 0.00 60 1008.8
20260506014717 13 0.0 0.0 0.00 0.00 0.00 58 1009.0
20260506012717 14 0.0 0.0 0.00 0.00 0.00 57 1009.0
20260506010717 15 0.0 0.0 0.00 0.00 0.00 57 1009.1
20260506004716 14 0.0 0.0 0.00 0.00 0.00 58 1009.2
20260506002716 14 0.0 0.0 0.00 0.00 0.00 58 1009.5
20260506000716 15 0.0 0.0 0.00 0.00 0.00 57 1009.6